This is the latest recevied weather packets stored in our database for station/object KF5JED-13. If no packets are shown the sender has not sent any weather packets the latest 10 day(s).
| Time | Temp. | Humidity | Pressure | Rain* | Wind** | Luminosity | Snow |
|---|---|---|---|---|---|---|---|
| 1778288994 | 25° C | 26% | 1011.7 hPa | 0 mm | - | 23 W/m² | - |
| 1778288692 | 25.56° C | 26% | 1011.7 hPa | 0 mm | - | 32 W/m² | - |
| 1778288388 | 25.56° C | 25% | 1011.6 hPa | 0 mm | - | 38 W/m² | - |
| 1778288086 | 25.56° C | 25% | 1011.6 hPa | 0 mm | - | 45 W/m² | - |
| 1778287780 | 26.11° C | 25% | 1011.5 hPa | 0 mm | - | 54 W/m² | - |
| 1778287477 | 26.11° C | 25% | 1011.7 hPa | 0 mm | - | 63 W/m² | - |
| 1778287175 | 26.11° C | 25% | 1011.3 hPa | 0 mm | - | 75 W/m² | - |
| 1778286873 | 26.11° C | 25% | 1011.3 hPa | 0 mm | - | 87 W/m² | - |
| 1778286570 | 26.11° C | 25% | 1011.5 hPa | 0 mm | - | 98 W/m² | - |
| 1778286268 | 26.67° C | 25% | 1011.2 hPa | 0 mm | - | 111 W/m² | - |
| 1778285964 | 26.67° C | 25% | 1011.5 hPa | 0 mm | - | 127 W/m² | - |
| 1778285661 | 26.67° C | 24% | 1011.3 hPa | 0 mm | - | 142 W/m² | - |
| 1778285358 | 26.67° C | 24% | 1011.3 hPa | 0 mm | - | 155 W/m² | - |
| 1778285056 | 26.67° C | 24% | 1011.2 hPa | 0 mm | - | 167 W/m² | - |
| 1778284751 | 26.67° C | 24% | 1011.2 hPa | 0 mm | - | 179 W/m² | - |
| 1778284449 | 26.67° C | 24% | 1011.2 hPa | 0 mm | - | 196 W/m² | - |
| 1778284146 | 26.67° C | 24% | 1011.2 hPa | 0 mm | - | 212 W/m² | - |
| 1778283843 | 26.67° C | 24% | 1011.2 hPa | 0 mm | - | 229 W/m² | - |
| 1778283541 | 26.67° C | 24% | 1011.2 hPa | 0 mm | - | 249 W/m² | - |
| 1778283240 | 27.22° C | 24% | 1011.1 hPa | 0 mm | - | 267 W/m² | - |
| 1778282936 | 27.22° C | 24% | 1011 hPa | 0 mm | - | 284 W/m² | - |
| 1778282633 | 27.22° C | 24% | 1011.1 hPa | 0 mm | - | 49 W/m² | - |
| 1778282331 | 27.22° C | 24% | 1011.2 hPa | 0 mm | - | 321 W/m² | - |
| 1778282027 | 27.78° C | 23% | 1011.2 hPa | 0 mm | - | 340 W/m² | - |
| 1778281724 | 27.78° C | 24% | 1011.1 hPa | 0 mm | - | 357 W/m² | - |
* Rain latest hour (hover to see other rain measurements)
** Current wind speed in m/s (hover to see current wind gust speed)